Preview of NWS' New Version of Forecast
This preview is not operational and should not be used for support decisions.
Latest weather observations around

Williamsburg-Whitley County Airport (KBYL)

Using English Units (Switch to International System of Units)
Date/ Time (EDT) Wind (mph) Vis. (mi) Weather Sky Cond. Temp (°F) Rel. Humidity Wind Chill (°F) Heat Index (°F) Pressure Precip. (in)
Air Dwpt 6 hour Altimeter (inHg) Sea level (inHg) 1 hr 3 hr 6 hr
Max Min
Apr 23 03:15 ESE 6 8 Clear   55 52     88%     30.04        
Apr 23 02:55 E 8 10 Clear   55 52     88%     30.02        
Apr 23 02:35 E 8 10 Clear   55 52     88%     30.04        
Apr 23 02:15 E 5 10 Clear   54 54     100%     30.05        
Apr 23 01:55 ENE 7 10 Clear   54 54     100%     30.06        
Apr 23 01:35 ENE 8 6 Clear   54 54     100%     30.06        
Apr 23 01:15 E 9 7 Clear   54 54     100%     30.06        
Apr 23 00:55 E 6 8 Clear   54 54     100%     30.08        
Apr 23 00:35 E 6 8 Clear   55 54     94%     30.09        
Apr 23 00:15 ESE 6 5 Clear   57 50     77%     30.08        
Apr 22 23:55 SE 8 9 Clear   59 46     63%     30.08        
Apr 22 23:35 SE 7 10 Clear   63 46     55%     30.08        
Apr 22 23:15 ESE 7 10 Clear   63 46     55%     30.08        
Apr 22 22:55 ESE 7 10 Clear   63 46     55%     30.08        
Apr 22 22:35 ESE 9 10 Clear   63 46     55%     30.09        
Apr 22 22:15 ESE 7 10 Clear   63 46     55%     30.09        
Apr 22 21:55 ESE 8 10 Clear   63 48     59%     30.1        
Apr 22 21:35 ESE 8 10 Clear   63 48     59%     30.09        
Apr 22 21:15 ESE 10 10 Clear   64 48     56%     30.09        
Apr 22 20:55 E 10 10 Clear   64 48     56%     30.09        
Apr 22 20:35 E 5 10 Clear   64 48     56%     30.09        
Apr 22 20:15 ESE 8 10 Clear   66 48     52%     30.09        
Apr 22 19:55 ESE 10 10 Clear   66 46     49%     30.09        
Apr 22 19:35 ESE 3 10 Clear   64 46     52%     30.1        
Apr 22 19:15 SE 5 10 Clear   66 46     49%     30.1        
Apr 22 18:55 SSE 7 10 Clear   66 46     49%     30.1        
Apr 22 18:35 SSE 9 10 Clear   66 45     46%     30.11        
Apr 22 18:15 S 9 10 Clear   66 45     46%     30.11        
Apr 22 17:55 SSE 10 10 Clear   68 45     43%     30.12        
Apr 22 17:35 SSE 10 10 Clear   68 43     40%     30.12        
Apr 22 16:55 S 10 10 Clear   68 41     37%     30.13        
Apr 22 16:15 ESE 5 10 Clear   72 39     31%   70 30.14        
Apr 22 15:55 SE 6 10 Clear   70 39     33%     30.14        
Apr 22 15:35 SSE 7 10 Clear   72 39     31%   70 30.16        
Apr 22 14:55 E 9 10 Clear   72 39     31%   70 30.17        
Apr 22 14:35 ESE 8 10 Clear   70 39     33%     30.18        
Apr 22 14:15 ESE 10 10 Clear   70 39     33%     30.18        
Apr 22 13:55 E 7 10 Clear   66 41     40%     30.19        
Apr 22 13:35 SE 5 10 Clear   64 39     39%     30.2        
Apr 22 13:15 SE 6 10 Clear   64 41     42%     30.21        
Apr 22 12:55 SE 5 10 Clear   64 39     39%     30.22        
Apr 22 12:35 SSE 5 10 Clear   63 39     42%     30.22        
Apr 22 11:55 Calm 10 Clear   61 39     45%     30.24        
Apr 22 11:35 Calm 10 Clear   59 37     44%     30.24        
Apr 22 11:15 SSE 3 10 Clear   59 39     48%     30.24        
Apr 22 10:55 SSE 5 10 Clear   59 37     44%     30.24        
Apr 22 10:35 ESE 3 10 Clear   59 37     44%     30.24        
Apr 22 10:15 ESE 3 10 Clear   57 37     47%     30.24        
Apr 22 09:55 SE 6 10 Clear   57 37     47%     30.25        
Apr 22 09:35 Calm 10 Clear   55 37     51%     30.26        
Apr 22 09:15 Calm 10 Clear   54 39     58%     30.25        
Notice The following observation data may not be complete
Apr 22 08:55 SE 3 10 Clear     39      %     30.25        
Apr 22 08:35 Calm 10 Clear   50 41     71%     30.26        
Apr 22 08:15 E 5 10 Clear   46 41     81% 44   30.25        
Apr 22 07:55 Calm 10 Clear   46 41     81%     30.25        
Apr 22 07:35 Calm 10 Clear   46 41     81%     30.25        
Apr 22 07:15 Calm 10 Clear   46 39     76%     30.25        
Apr 22 06:55 Calm 10 Clear   46 39     76%     30.24        
Apr 22 06:35 Calm 10 Clear   45 39     81%     30.23        
Apr 22 06:15 Calm 10 Clear   46 39     76%     30.23        
Apr 22 05:55 Calm 10 Clear   46 39     76%     30.23        
Apr 22 05:35 Calm 10 Clear   46 39     76%     30.23        
Apr 22 05:15 Calm 10 Clear   48 37     66%     30.22        
Apr 22 04:55 Calm 10 Clear   46 39     76%     30.22        
Apr 22 04:35 Calm 10 Clear   46 37     71%     30.23        
Apr 22 04:15 Calm 10 Clear   48 39     71%     30.23        
Apr 22 03:55 Calm 10 Clear   48 37     66%     30.23        
Apr 22 03:35 Calm 10 Clear   48 41     76%     30.23        
Apr 22 03:15 Calm 10 Clear   48 39     71%     30.23        
Apr 22 02:55 Calm 10 Clear   46 39     76%     30.23        
Apr 22 02:35 SSW 3 10 Clear   46 39     76% 45   30.24        
Apr 22 02:15 Calm 10 Clear   48 37     66%     30.24        
Apr 22 01:55 Calm 10 Clear   50 36     58%     30.24        
Apr 22 01:35 Calm 10 Clear   50 32     50%     30.25        
Apr 22 01:15 Calm 10 Clear   50 34     54%     30.24        
Apr 22 00:55 Calm 10 Clear   50 32     50%     30.25        
Apr 22 00:35 Calm 10 Clear   54 32     44%     30.24        
Apr 22 00:15 Calm 10 Clear   54 32     44%     30.24        
Apr 21 23:55 Calm 10 Clear   52 34     50%     30.24        
Apr 21 23:35 Calm 10 Clear   54 36     50%     30.24        
Apr 21 23:15 N 5 10 Clear   55 34     44%     30.24        
Apr 21 22:55 N 5 10 Clear   54 34     47%     30.24        
Apr 21 22:35 Calm 10 Clear   63 30     29%     30.25        
Apr 21 22:15 Calm 10 Clear   59 32     36%     30.25        
Apr 21 21:55 Calm 10 Clear   61 32     34%     30.25        
Apr 21 21:35 Calm 10 Clear   63 32     32%     30.24        
Apr 21 21:15 Calm 10 Clear   63 30     29%     30.23        
Apr 21 20:55 NE 5 10 Clear   64 30     28%     30.22        
Apr 21 20:35 ENE 6 10 Clear   64 32     30%     30.22        
Apr 21 20:15 NE 6 10 Clear   64 32     30%     30.22        
Apr 21 19:55 NE 6 10 Clear   66 32     28%     30.21        
Apr 21 19:35 NE 7 10 Clear   66 36     32%     30.21        
Apr 21 19:15 NNE 5 10 Clear   68 34     28%     30.21        
Apr 21 18:55 NNE 5 10 Clear   70 32     25%     30.21        
Apr 21 18:35 NE 3 10 Clear   70 30     23%     30.22        
Apr 21 18:15 NNE 5 10 Clear   72 30     22%   69 30.22        
Apr 21 17:55 Calm 10 Clear   72 28     20%   69 30.22        
Apr 21 17:35 NE 8 10 Clear   73 32     22%   71 30.23        
Apr 21 17:15 NNE 6 10 Clear   72 32     23%   70 30.23        
Apr 21 16:55 NNE 7 10 Clear   72 32     23%   70 30.24        
Apr 21 16:35 NNE 8 10 Clear   72 32     23%   70 30.24        
Apr 21 16:15 NE 6 10 Clear   73 32     22%   71 30.25        
Apr 21 15:55 NE 8 10 Clear   72 34     25%   70 30.25        
Apr 21 15:35 NNE 8 10 Clear   72 32     23%   70 30.26        
Apr 21 15:15 Calm 10 Clear   72 32     23%   70 30.27        
Apr 21 14:55 Calm 10 Clear   70 30     23%     30.28        
Apr 21 14:35 SE 3 10 Clear   68 32     26%     30.28        
Apr 21 14:15 NNE 6 10 Clear   68 32     26%     30.29        
Apr 21 13:55 NE 3 10 Clear   68 32     26%     30.29        
Apr 21 13:35 N 5 10 Clear   68 32     26%     30.3        
Apr 21 13:15 WNW 6 10 Clear   66 32     28%     30.32        
Apr 21 12:55 Calm 10 Clear   66 28     24%     30.33        
Apr 21 12:35 Calm 10 Clear   64 30     28%     30.34        
Apr 21 12:15 ENE 3 10 Clear   63 28     27%     30.35        
Apr 21 11:55 Calm 10 Clear   63 28     27%     30.36        
Apr 21 11:35 S 3 10 Clear   61 30     31%     30.36        
Apr 21 11:15 SE 6 10 Clear   59 28     31%     30.36        
Apr 21 10:55 SE 5 10 Clear   57 30     36%     30.36        
Apr 21 10:35 Calm 10 Clear   55 27     33%     30.37        
Apr 21 10:15 E 5 10 Clear   54 27     35%     30.37        
Apr 21 09:55 E 3 10 Clear   54 27     35%     30.37        
Apr 21 09:35 E 5 10 Clear   50 28     43% 48   30.37        
Apr 21 09:15 Calm 10 Clear   48 30     50%     30.37        
Notice The following observation data may not be complete
Apr 21 08:55 Calm 10 Clear     30      %     30.37        
Apr 21 08:35 Calm 10 Clear   43 32     65%     30.37        
Apr 21 08:15 Calm 10 Clear   39 32     75%     30.37        
Apr 21 07:55 Calm 10 Clear   37 32     81%     30.36        
Apr 21 07:35 Calm 10 Clear   36 32     87%     30.36        
Apr 21 07:15 ESE 3 10 Clear   34 32     93% 31   30.36        
Apr 21 06:55 Calm 10 Clear   34 32     93%     30.36        
Apr 21 06:35 Calm 10 Clear   34 32     93%     30.35        
Apr 21 06:15 Calm 10 Clear   34 32     93%     30.35        
Apr 21 05:55 Calm 10 Clear   32 30     93%     30.35        
Apr 21 05:35 SSE 3 10 Clear   36 27     69% 33   30.35        
Apr 21 05:15 Calm 10 Clear   36 25     64%     30.35        
Apr 21 04:55 Calm 10 Clear   36 25     64%     30.35        
Apr 21 04:35 Calm 10 Clear   36 28     75%     30.35        
Apr 21 04:15 Calm 10 Clear   37 25     60%     30.35        
Apr 21 03:55 Calm 10 Clear   37 27     65%     30.35        
Apr 21 03:35 NE 3 10 Clear   39 25     56% 37   30.34        
Notice The following observation data may not be complete
Apr 21 03:15 Calm 10 Clear     21      %     30.33        
Apr 21 02:55 Calm 10 Clear   45 23     42%     30.33        
Apr 21 02:35 Calm 10 Clear   45        %     30.33        
Apr 21 02:15 NE 3 10 Clear   43 23     45% 41   30.34        
Apr 21 01:55 NNE 5 10 Clear   46        % 44   30.35        
Apr 21 01:35 Calm 10 Clear   46        %     30.35        
Apr 21 01:15 Calm 10 Clear   43 25     49%     30.35        
Apr 21 00:55 NE 5 10 Clear   46 23     39% 44   30.35        
Apr 21 00:35 NNE 3 10 Clear   48 23     37% 47   30.35        
Apr 21 00:15 NNE 5 10 Clear   48 23     37% 46   30.35        
Apr 20 23:55 N 5 10 Clear   48 23     37% 46   30.36        
Apr 20 23:35 NNE 6 10 Clear   48 23     37% 46   30.35        
Apr 20 23:15 N 7 10 Clear   50 23     34% 47   30.35        
Apr 20 22:55 N 6 10 Clear   50 23     34% 48   30.35        
Apr 20 22:35 NNW 5 10 Clear   50 25     37% 48   30.35        
Apr 20 22:15 NE 7 10 Clear   50 23     34% 47   30.35        
Apr 20 21:55 NE 7 10 Clear   52 21     30%     30.35        
Apr 20 21:35 NE 6 10 Clear   54 19     26%     30.35        
Apr 20 21:15 NNE 5 10 Clear   54 21     28%     30.35        
Apr 20 20:55 NE 3 10 Clear   55 19     24%     30.34        
Apr 20 20:35 NE 6 10 Clear   54 21     28%     30.34        
Apr 20 20:15 NNE 5 10 Clear   55 21     26%     30.34        
Apr 20 19:55 NNE 6 10 Clear   55 23     28%     30.34        
Apr 20 19:35 NNE 8 10 Clear   57 25     29%     30.34        
Apr 20 19:15 N 8 10 Clear   59 21     23%     30.34        
Apr 20 18:55 N 8 10 Clear   61 23     23%     30.34        
Apr 20 18:35 N 7 10 Clear   63 23     22%     30.35        
Apr 20 18:15 N 8 10 Clear   63 25     24%     30.35        
Apr 20 17:55 NNE 9 10 Clear   63 25     24%     30.35        
Apr 20 17:35 N 8 10 Clear   63 25     24%     30.35        
Apr 20 17:15 NNW 8 10 Clear   63 25     24%     30.35        
Apr 20 16:55 N 10 10 Clear   63 27     25%     30.35        
Apr 20 16:35 N 6 10 Clear   63 25     24%     30.35        
Apr 20 16:15 N 8 10 Clear   63 27     25%     30.36        
Apr 20 15:55 N 7 10 Clear   61 25     25%     30.36        
Apr 20 15:35 NW 6 10 Clear   61 25     25%     30.37        
Apr 20 15:15 NE 8 10 Clear   59 27     29%     30.38        
Apr 20 14:55 NE 12 10 Clear   59 27     29%     30.37        
Apr 20 14:35 N 6 10 Clear   59 28     31%     30.39        
Apr 20 14:15 N 8 9 Clear   57 27     31%     30.4        
Apr 20 13:55 N 7 10 Clear   57 27     31%     30.4        
Apr 20 13:35 NW 5 10 Clear   55 27     33%     30.41        
Apr 20 13:15 NE 8 10 Clear   55 25     30%     30.41        
Apr 20 12:55 E 5 10 Clear   55 25     30%     30.42        
Apr 20 12:35 E 6 10 Clear   55 25     30%     30.43        
Apr 20 12:15 E 8 10 Clear   54 27     35%     30.43        
Apr 20 11:55 E 7 10 Clear   54 27     35%     30.44        
Apr 20 11:35 NE 7 10 Clear   52 30     43%     30.44        
Apr 20 11:15 E 10 10 Clear   50 30     46% 46   30.44        
Apr 20 10:55 ENE 5 10 Clear   48 32     53% 46   30.43        
Apr 20 10:35 ENE 6 10 Clear   46 32     57% 44   30.43        
Apr 20 10:15 SE 5 10 Clear   46 34     61% 44   30.43        
Apr 20 09:55 NE 6 10 Clear   45 34     66% 41   30.42        
Apr 20 09:35 Calm 10 Clear   39 37     93%     30.42        
Apr 20 09:15 Calm 10 Clear   37 37     100%     30.41        
Apr 20 08:55 Calm 10 Clear   36 36     100%     30.41        
Apr 20 08:35 Calm 7 Clear   32 32     100%     30.41        
Apr 20 08:15 Calm 3 Clear   32 32     100%     30.4        
Notice The following observation data may not be complete
Apr 20 07:55   0.5 Clear            %              
Apr 20 07:35 Calm 0.25 Clear   28 28     100%     30.39        
Apr 20 07:15 Calm   Clear   28 28     100%     30.39        
Apr 20 06:55 Calm   Clear   28 28     100%     30.38        
Apr 20 06:35 Calm   Clear   28 28     100%     30.38        
Apr 20 06:15 Calm   Clear   28 28     100%     30.37        
Apr 20 05:55 Calm   Clear   28 28     100%     30.37        
Apr 20 05:35 Calm   Clear   28 28     100%     30.37        
Apr 20 05:15 Calm 5 Clear   28 28     100%     30.36        
Apr 20 04:55 Calm 8 Clear   28 28     100%     30.36        
Apr 20 04:15 Calm 1.5 Clear   28 28     100%     30.35        
Apr 20 03:55 Calm 10 Clear   30 30     100%     30.35        
Apr 20 03:35 Calm 10 Clear   30 30     100%     30.35        
Apr 20 03:15 Calm 10 Clear   32 32     100%     30.34